Regional Weather Roundup
Issued by NWS New Orleans/Baton Rouge, LA

Home | Current Version | Previous Version | Text Only | Print | Product List | Glossary On
Versions: 1 2 3 4 5 6 7 8 9 10 11 12 13 14 15 16 17 18 19 20 21 22 23 24 25 26 27 28 29 30 31 32 33 34 35 36 37 38 39 40 41 42 43 44 45 46 47 48 49 50
000
ASUS44 KLIX 041012
RWRLIX
NEW ORLEANS REGIONAL WEATHER ROUNDUP
NATIONAL WEATHER SERVICE NEW ORLEANS LA
500 AM CDT WED MAY 04 2016

NOTE: "FAIR" INDICATES FEW OR NO CLOUDS BELOW 12,000 FEET WITH NO
      SIGNIFICANT WEATHER AND/OR OBSTRUCTIONS TO VISIBILITY.
      SKY/WX - SKY CONDITION AND SIGNIFICANT WEATHER.
      TMP - AIR TEMPERATURE.     DP    - DEWPOINT TEMPERATURE.
      RH  - RELATIVE HUMIDITY.   PRES  - PRESSURE.
      HI  - HEAT INDEX.          WCI   - WIND CHILL INDEX.

*  THESE STATIONS ARE NOT NWS OR FAA STATIONS AND ARE NOT UNDER
   NWS QUALITY CONTROL.

LAZ038-040-048-061>063-065>067-069-041100-
SOUTHEAST LOUISIANA

CITY           SKY/WX    TMP DP  RH WIND       PRES   REMARKS
N.O. AUDUBON     N/A     65  53  65 MISG        N/A
N.O. INTL ARPT MOCLDY    65  51  60 N10       29.94F
N.O. LAKEFRONT CLOUDY    62  53  72 N17       29.95S
N.O. DOWNTOWN*   N/A     65  50  58 N12       29.94F
RESERVE*         N/A     61  54  76 N6        29.96S
SLIDELL        MOCLDY    58  55  90 N5        29.93S
BATON ROUGE    CLEAR     55  51  86 CALM      29.97S
BOOTHVILLE     CLEAR     67  58  72 N10G21    29.91R
BELLE CHASSE   CLEAR     63  52  67 N7        29.92F
BOGALUSA*        N/A     56  51  86 N3        29.97R
GALLIANO*      SUNNY     65  58  78 N10       29.92F
NEW ROADS*       N/A     56  54  91 NW3       29.99S
GONZALES*        N/A     58  52  81 N6        29.95F
HAMMOND*       PTCLDY    54  50  87 N7        29.95F
HOUMA*           N/A     60  58  93 N8        29.94S
PORT FOURCHON* MOSUNNY   68  57  68 N21       29.92S

$$

MSZ070-080>082-041100-
SOUTHERN MISSISSIPPI

CITY           SKY/WX    TMP DP  RH WIND       PRES   REMARKS
MCCOMB         CLEAR     53  50  89 N5        29.96F
GULFPORT       PTCLDY    58  52  80 N7        29.92S
BILOXI         PTCLDY    60  53  79 N12       29.91F
PASCAGOULA     CLEAR     57  53  86 N6        29.91S

$$

COASTAL OBSERVATIONS
LAKE AND NEARSHORE STATIONS

STATION/POSITION TIME  TEMP    WIND        PRES    WAVE
                       AIR SEA DIR/SP/G            HT/PER
                 (UTC) (F)     (DEG/KT/KT) (MB)    (FT/S)
PASCAGOULA       0900   61     350/ 12/ 16 1012.0
WAVELAND YACHT   0900   62 71  360/ 11/ 13 1013.2
GRAND ISLE       0900   68 76   10/ 18/ 20 1012.5
SOUTHWEST PASS   0900           10/ 24/ 26   N/A
NEW CANAL        0900   66 74   20/ 15/ 18 1013.1
SHELL BEACH      0900   66 74   10/ 22/ 25 1012.9

OFFSHORE STATIONS

STATION/POSITION TIME  TEMP    WIND        PRES    WAVE
                       AIR SEA DIR/SP/G            HT/PER
                 (UTC) (F)     (DEG/KT/KT) (MB)    (FT/S)
64 S DAUPHIN ISL 0900   73 77  350/ 19/ 23 1010.5

$$




USA.gov is the U.S. government's official web portal to all federal, state and local government web resources and services.